Home   Weather   Legnica   Past weeks

Flag for Poland Past Weather in Legnica, Poland — Yesterday and Last 2 Weeks

Now
53 °F

Passing clouds.


Feels Like: 53 °F
Forecast: 49 / 76 °F
Wind: 2 mph from Northwest

Location: Wroclaw Ii

Current Time: May 26, 2017 at 3:44:42 am

Latest Report: May 26, 2017 at 3:00 am


Visibility: 19 mi

Pressure: 30.14 "Hg

Humidity: 85%

Dew Point: 48 °F

Location of LegnicaLocation

Past Weather in Legnica — Graph

°F

Legnica Temperature Yesterday

Maximum temperature yesterday: 64 °F (at 7:00 pm)
Minimum temperature yesterday: 52 °F (at 12:00 am)
Average temperature yesterday: 58 °F

High & Low Weather Summary for the Past Weeks

 TemperatureHumidityPressure
High81 °F (May 19, 3:00 pm)97% (May 15, 3:00 am)30.43 "Hg (May 15, 3:00 am)
Low38 °F (May 11, 5:00 am)32% (May 17, 5:00 pm)29.64 "Hg (May 12, 5:00 am)
Average62 °F66%30.04 "Hg
* Reported May 11 1:00 am — May 26 1:00 am, Legnica. Weather by CustomWeather, © 2017

Note: Actual official high and low records may vary slightly from our data, if they occured in-between our weather recording intervals... More about our weather records

Advertising

Legnica Weather History for the Previous 24 Hours

Scroll right to see more
 ConditionsComfort  
Time TempWeatherWind HumidityBarometerVisibility
1:00 am
Fri, May 26
55 °FOvercast.2 mph80%30.14 "Hg31 mi
12:00 am53 °FPassing clouds.29 mph77%30.14 "Hg16 mi
11:00 pm
Thu, May 25
57 °FOvercast.1 mph73%30.13 "Hg31 mi
10:00 pm60 °FOvercast.1 mph68%30.11 "Hg31 mi
9:00 pm61 °FOvercast.1 mph66%30.10 "Hg31 mi
8:00 pm62 °FOvercast.1 mph65%30.09 "Hg31 mi
7:00 pm64 °FPartly sunny.3 mph59%30.10 "Hg31 mi
5:00 pm63 °FOvercast.3 mph56%30.12 "Hg31 mi
4:00 pm64 °FOvercast.5 mph58%30.13 "Hg31 mi
2:00 pm63 °FPassing clouds.40 mph61%30.13 "Hg3 mi
1:00 pm62 °FOvercast.3 mph59%30.14 "Hg31 mi
12:00 pm62 °FOvercast.5 mph59%30.14 "Hg31 mi
11:00 amN/APassing clouds.24 mphN/AN/A2 mi
9:00 am58 °FPassing clouds.3 mph76%30.14 "Hg25 mi
8:00 am54 °FScattered clouds.2 mph82%30.13 "Hg25 mi
7:00 am52 °FPartly sunny.3 mph85%30.13 "Hg19 mi
5:00 am52 °FOvercast.2 mph89%30.10 "Hg19 mi
4:00 am52 °FOvercast.2 mph89%30.10 "Hg19 mi
3:00 am53 °FLight rain. Overcast.2 mph90%30.09 "Hg12 mi
Weather by CustomWeather, © 2017

See weather overviewHow to use our weather pages